Year,Month,Day,Hour,Minute,Value (Times are PST for insolation in W/m^2)
2017,05,14,00,00,0.00
2017,05,14,00,01,0.00
2017,05,14,00,02,0.00
2017,05,14,00,03,0.00
2017,05,14,00,04,0.00
2017,05,14,00,05,0.00
2017,05,14,00,06,0.00
2017,05,14,00,07,0.00
2017,05,14,00,08,0.00
2017,05,14,00,09,0.00
2017,05,14,00,10,0.00
2017,05,14,00,11,0.00
2017,05,14,00,12,0.00
2017,05,14,00,13,0.00
2017,05,14,00,14,0.00
2017,05,14,00,15,0.00
2017,05,14,00,16,0.00
2017,05,14,00,17,0.00
2017,05,14,00,18,0.00
2017,05,14,00,19,0.00
2017,05,14,00,20,0.00
2017,05,14,00,21,0.00
2017,05,14,00,22,0.00
2017,05,14,00,23,0.00
2017,05,14,00,24,0.00
2017,05,14,00,25,0.00
2017,05,14,00,26,0.00
2017,05,14,00,27,0.00
2017,05,14,00,28,0.00
2017,05,14,00,29,0.00
2017,05,14,00,30,0.00
2017,05,14,00,31,0.00
2017,05,14,00,32,0.00
2017,05,14,00,33,0.00
2017,05,14,00,34,0.00
2017,05,14,00,35,0.00
2017,05,14,00,36,0.00
2017,05,14,00,37,0.00
2017,05,14,00,38,0.00
2017,05,14,00,39,0.00
2017,05,14,00,40,0.00
2017,05,14,00,41,0.00
2017,05,14,00,42,0.00
2017,05,14,00,43,0.00
2017,05,14,00,44,0.00
2017,05,14,00,45,0.00
2017,05,14,00,46,0.00
2017,05,14,00,47,0.00
2017,05,14,00,48,0.00
2017,05,14,00,49,0.00
2017,05,14,00,50,0.00
2017,05,14,00,51,0.00
2017,05,14,00,52,0.00
2017,05,14,00,53,0.00
2017,05,14,00,54,0.00
2017,05,14,00,55,0.00
2017,05,14,00,56,0.00
2017,05,14,00,57,0.00
2017,05,14,00,58,0.00
2017,05,14,00,59,0.00
2017,05,14,01,00,0.00
2017,05,14,01,01,0.00
2017,05,14,01,02,0.00
2017,05,14,01,03,0.00
2017,05,14,01,04,0.00
2017,05,14,01,05,0.00
2017,05,14,01,06,0.00
2017,05,14,01,07,0.00
2017,05,14,01,08,0.00
2017,05,14,01,09,0.00
2017,05,14,01,10,0.00
2017,05,14,01,11,0.00
2017,05,14,01,12,0.00
2017,05,14,01,13,0.00
2017,05,14,01,14,0.00
2017,05,14,01,15,0.00
2017,05,14,01,16,0.00
2017,05,14,01,17,0.00
2017,05,14,01,18,0.00
2017,05,14,01,19,0.00
2017,05,14,01,20,0.00
2017,05,14,01,21,0.00
2017,05,14,01,22,0.00
2017,05,14,01,23,0.00
2017,05,14,01,24,0.00
2017,05,14,01,25,0.00
2017,05,14,01,26,0.00
2017,05,14,01,27,0.00
2017,05,14,01,28,0.00
2017,05,14,01,29,0.00
2017,05,14,01,30,0.00
2017,05,14,01,31,0.00
2017,05,14,01,32,0.00
2017,05,14,01,33,0.00
2017,05,14,01,34,0.00
2017,05,14,01,35,0.00
2017,05,14,01,36,0.00
2017,05,14,01,37,0.00
2017,05,14,01,38,0.00
2017,05,14,01,39,0.00
2017,05,14,01,40,0.00
2017,05,14,01,41,0.00
2017,05,14,01,42,0.00
2017,05,14,01,43,0.00
2017,05,14,01,44,0.00
2017,05,14,01,45,0.00
2017,05,14,01,46,0.00
2017,05,14,01,47,0.00
2017,05,14,01,48,0.00
2017,05,14,01,49,0.00
2017,05,14,01,50,0.00
2017,05,14,01,51,0.00
2017,05,14,01,52,0.00
2017,05,14,01,53,0.00
2017,05,14,01,54,0.00
2017,05,14,01,55,0.00
2017,05,14,01,56,0.00
2017,05,14,01,57,0.00
2017,05,14,01,58,0.00
2017,05,14,01,59,0.00
2017,05,14,02,00,0.00
2017,05,14,02,01,0.00
2017,05,14,02,02,0.00
2017,05,14,02,03,0.00
2017,05,14,02,04,0.00
2017,05,14,02,05,0.00
2017,05,14,02,06,0.00
2017,05,14,02,07,0.00
2017,05,14,02,08,0.00
2017,05,14,02,09,0.00
2017,05,14,02,10,0.00
2017,05,14,02,11,0.00
2017,05,14,02,12,0.00
2017,05,14,02,13,0.00
2017,05,14,02,14,0.00
2017,05,14,02,15,0.00
2017,05,14,02,16,0.00
2017,05,14,02,17,0.00
2017,05,14,02,18,0.00
2017,05,14,02,19,0.00
2017,05,14,02,20,0.00
2017,05,14,02,21,0.00
2017,05,14,02,22,0.00
2017,05,14,02,23,0.00
2017,05,14,02,24,0.00
2017,05,14,02,25,0.00
2017,05,14,02,26,0.00
2017,05,14,02,27,0.00
2017,05,14,02,28,0.00
2017,05,14,02,29,0.00
2017,05,14,02,30,0.00
2017,05,14,02,31,0.00
2017,05,14,02,32,0.00
2017,05,14,02,33,0.00
2017,05,14,02,34,0.00
2017,05,14,02,35,0.00
2017,05,14,02,36,0.00
2017,05,14,02,37,0.00
2017,05,14,02,38,0.00
2017,05,14,02,39,0.00
2017,05,14,02,40,0.00
2017,05,14,02,41,0.00
2017,05,14,02,42,0.00
2017,05,14,02,43,0.00
2017,05,14,02,44,0.00
2017,05,14,02,45,0.00
2017,05,14,02,46,0.00
2017,05,14,02,47,0.00
2017,05,14,02,48,0.00
2017,05,14,02,49,0.00
2017,05,14,02,50,0.00
2017,05,14,02,51,0.00
2017,05,14,02,52,0.00
2017,05,14,02,53,0.00
2017,05,14,02,54,0.00
2017,05,14,02,55,0.00
2017,05,14,02,56,0.00
2017,05,14,02,57,0.00
2017,05,14,02,58,0.00
2017,05,14,02,59,0.00
2017,05,14,03,00,0.00
2017,05,14,03,01,0.00
2017,05,14,03,02,0.00
2017,05,14,03,03,0.00
2017,05,14,03,04,0.00
2017,05,14,03,05,0.00
2017,05,14,03,06,0.00
2017,05,14,03,07,0.00
2017,05,14,03,08,0.00
2017,05,14,03,09,0.00
2017,05,14,03,10,0.00
2017,05,14,03,11,0.00
2017,05,14,03,12,0.00
2017,05,14,03,13,0.00
2017,05,14,03,14,0.00
2017,05,14,03,15,0.00
2017,05,14,03,16,0.00
2017,05,14,03,17,0.00
2017,05,14,03,18,0.00
2017,05,14,03,19,0.00
2017,05,14,03,20,0.00
2017,05,14,03,21,0.00
2017,05,14,03,22,0.00
2017,05,14,03,23,0.00
2017,05,14,03,24,0.00
2017,05,14,03,25,0.00
2017,05,14,03,26,0.00
2017,05,14,03,27,0.00
2017,05,14,03,28,0.00
2017,05,14,03,29,0.00
2017,05,14,03,30,0.00
2017,05,14,03,31,0.00
2017,05,14,03,32,0.00
2017,05,14,03,33,0.00
2017,05,14,03,34,0.00
2017,05,14,03,35,0.00
2017,05,14,03,36,0.00
2017,05,14,03,37,0.00
2017,05,14,03,38,0.00
2017,05,14,03,39,0.00
2017,05,14,03,40,0.00
2017,05,14,03,41,0.00
2017,05,14,03,42,0.00
2017,05,14,03,43,0.00
2017,05,14,03,44,0.00
2017,05,14,03,45,0.00
2017,05,14,03,46,0.00
2017,05,14,03,47,0.00
2017,05,14,03,48,0.00
2017,05,14,03,49,0.00
2017,05,14,03,50,0.00
2017,05,14,03,51,0.00
2017,05,14,03,52,0.00
2017,05,14,03,53,0.00
2017,05,14,03,54,0.00
2017,05,14,03,55,0.00
2017,05,14,03,56,0.00
2017,05,14,03,57,0.00
2017,05,14,03,58,0.00
2017,05,14,03,59,0.00
2017,05,14,04,00,0.00
2017,05,14,04,01,0.00
2017,05,14,04,02,0.00
2017,05,14,04,03,0.00
2017,05,14,04,04,0.00
2017,05,14,04,05,0.00
2017,05,14,04,06,0.00
2017,05,14,04,07,0.00
2017,05,14,04,08,0.00
2017,05,14,04,09,0.00
2017,05,14,04,10,0.00
2017,05,14,04,11,0.00
2017,05,14,04,12,0.00
2017,05,14,04,13,0.00
2017,05,14,04,14,0.00
2017,05,14,04,15,0.00
2017,05,14,04,16,0.00
2017,05,14,04,17,0.00
2017,05,14,04,18,0.00
2017,05,14,04,19,0.00
2017,05,14,04,20,0.00
2017,05,14,04,21,0.00
2017,05,14,04,22,0.00
2017,05,14,04,23,0.00
2017,05,14,04,24,0.00
2017,05,14,04,25,0.00
2017,05,14,04,26,0.00
2017,05,14,04,27,0.00
2017,05,14,04,28,0.00
2017,05,14,04,29,0.00
2017,05,14,04,30,0.00
2017,05,14,04,31,0.00
2017,05,14,04,32,0.00
2017,05,14,04,33,0.00
2017,05,14,04,34,0.00
2017,05,14,04,35,0.00
2017,05,14,04,36,0.00
2017,05,14,04,37,0.00
2017,05,14,04,38,0.00
2017,05,14,04,39,0.00
2017,05,14,04,40,0.00
2017,05,14,04,41,0.00
2017,05,14,04,42,0.00
2017,05,14,04,43,0.00
2017,05,14,04,44,0.00
2017,05,14,04,45,0.00
2017,05,14,04,46,0.00
2017,05,14,04,47,0.00
2017,05,14,04,48,0.00
2017,05,14,04,49,0.00
2017,05,14,04,50,0.00
2017,05,14,04,51,0.00
2017,05,14,04,52,0.00
2017,05,14,04,53,0.00
2017,05,14,04,54,0.00
2017,05,14,04,55,0.00
2017,05,14,04,56,0.00
2017,05,14,04,57,0.00
2017,05,14,04,58,0.00
2017,05,14,04,59,0.00
2017,05,14,05,00,0.00
2017,05,14,05,01,0.00
2017,05,14,05,02,0.00
2017,05,14,05,03,0.00
2017,05,14,05,04,0.00
2017,05,14,05,05,0.00
2017,05,14,05,06,0.00
2017,05,14,05,07,0.00
2017,05,14,05,08,0.00
2017,05,14,05,09,0.00
2017,05,14,05,10,0.00
2017,05,14,05,11,0.00
2017,05,14,05,12,0.00
2017,05,14,05,13,0.00
2017,05,14,05,14,0.00
2017,05,14,05,15,0.00
2017,05,14,05,16,0.00
2017,05,14,05,17,0.00
2017,05,14,05,18,0.00
2017,05,14,05,19,0.00
2017,05,14,05,20,0.00
2017,05,14,05,21,0.00
2017,05,14,05,22,0.00
2017,05,14,05,23,0.00
2017,05,14,05,24,0.00
2017,05,14,05,25,0.00
2017,05,14,05,26,0.00
2017,05,14,05,27,0.00
2017,05,14,05,28,0.00
2017,05,14,05,29,0.00
2017,05,14,05,30,0.00
2017,05,14,05,31,0.00
2017,05,14,05,32,0.00
2017,05,14,05,33,0.00
2017,05,14,05,34,0.00
2017,05,14,05,35,0.00
2017,05,14,05,36,0.00
2017,05,14,05,37,0.00
2017,05,14,05,38,0.00
2017,05,14,05,39,0.00
2017,05,14,05,40,0.00
2017,05,14,05,41,0.00
2017,05,14,05,42,0.00
2017,05,14,05,43,0.00
2017,05,14,05,44,0.00
2017,05,14,05,45,0.00
2017,05,14,05,46,0.00
2017,05,14,05,47,0.00
2017,05,14,05,48,0.00
2017,05,14,05,49,0.00
2017,05,14,05,50,0.00
2017,05,14,05,51,0.00
2017,05,14,05,52,0.00
2017,05,14,05,53,0.00
2017,05,14,05,54,2.50
2017,05,14,05,55,5.00
2017,05,14,05,56,5.00
2017,05,14,05,57,5.00
2017,05,14,05,58,5.00
2017,05,14,05,59,5.00
2017,05,14,06,00,6.50
2017,05,14,06,01,7.00
2017,05,14,06,02,7.00
2017,05,14,06,03,7.00
2017,05,14,06,04,7.00
2017,05,14,06,05,8.90
2017,05,14,06,06,9.00
2017,05,14,06,07,9.00
2017,05,14,06,08,9.00
2017,05,14,06,09,9.00
2017,05,14,06,10,8.50
2017,05,14,06,11,7.00
2017,05,14,06,12,7.00
2017,05,14,06,13,7.00
2017,05,14,06,14,7.80
2017,05,14,06,15,9.00
2017,05,14,06,16,9.90
2017,05,14,06,17,11.00
2017,05,14,06,18,11.60
2017,05,14,06,19,13.20
2017,05,14,06,20,14.00
2017,05,14,06,21,14.00
2017,05,14,06,22,15.40
2017,05,14,06,23,16.00
2017,05,14,06,24,16.00
2017,05,14,06,25,14.30
2017,05,14,06,26,14.00
2017,05,14,06,27,12.20
2017,05,14,06,28,12.00
2017,05,14,06,29,12.10
2017,05,14,06,30,14.00
2017,05,14,06,31,14.60
2017,05,14,06,32,18.20
2017,05,14,06,33,19.00
2017,05,14,06,34,19.50
2017,05,14,06,35,21.00
2017,05,14,06,36,21.70
2017,05,14,06,37,23.00
2017,05,14,06,38,24.10
2017,05,14,06,39,27.00
2017,05,14,06,40,29.00
2017,05,14,06,41,31.60
2017,05,14,06,42,34.10
2017,05,14,06,43,36.20
2017,05,14,06,44,37.00
2017,05,14,06,45,37.00
2017,05,14,06,46,37.00
2017,05,14,06,47,38.60
2017,05,14,06,48,39.00
2017,05,14,06,49,39.80
2017,05,14,06,50,41.80
2017,05,14,06,51,43.80
2017,05,14,06,52,46.00
2017,05,14,06,53,47.20
2017,05,14,06,54,49.00
2017,05,14,06,55,49.00
2017,05,14,06,56,48.60
2017,05,14,06,57,47.00
2017,05,14,06,58,47.60
2017,05,14,06,59,49.70
2017,05,14,07,00,51.80
2017,05,14,07,01,53.00
2017,05,14,07,02,53.50
2017,05,14,07,03,54.90
2017,05,14,07,04,54.90
2017,05,14,07,05,53.40
2017,05,14,07,06,49.00
2017,05,14,07,07,46.30
2017,05,14,07,08,46.70
2017,05,14,07,09,47.00
2017,05,14,07,10,47.00
2017,05,14,07,11,46.20
2017,05,14,07,12,46.00
2017,05,14,07,13,47.00
2017,05,14,07,14,50.60
2017,05,14,07,15,56.30
2017,05,14,07,16,62.30
2017,05,14,07,17,65.00
2017,05,14,07,18,64.70
2017,05,14,07,19,62.00
2017,05,14,07,20,58.00
2017,05,14,07,21,58.50
2017,05,14,07,22,63.20
2017,05,14,07,23,69.40
2017,05,14,07,24,67.90
2017,05,14,07,25,64.10
2017,05,14,07,26,63.00
2017,05,14,07,27,63.00
2017,05,14,07,28,62.40
2017,05,14,07,29,62.00
2017,05,14,07,30,66.60
2017,05,14,07,31,74.70
2017,05,14,07,32,82.20
2017,05,14,07,33,85.60
2017,05,14,07,34,87.70
2017,05,14,07,35,82.10
2017,05,14,07,36,76.50
2017,05,14,07,37,72.20
2017,05,14,07,38,77.60
2017,05,14,07,39,91.00
2017,05,14,07,40,101.20
2017,05,14,07,41,112.30
2017,05,14,07,42,118.60
2017,05,14,07,43,120.80
2017,05,14,07,44,118.10
2017,05,14,07,45,113.30
2017,05,14,07,46,116.30
2017,05,14,07,47,122.10
2017,05,14,07,48,125.00
2017,05,14,07,49,122.40
2017,05,14,07,50,116.20
2017,05,14,07,51,111.80
2017,05,14,07,52,114.00
2017,05,14,07,53,120.60
2017,05,14,07,54,125.90
2017,05,14,07,55,125.50
2017,05,14,07,56,125.00
2017,05,14,07,57,126.60
2017,05,14,07,58,125.20
2017,05,14,07,59,127.70
2017,05,14,08,00,129.90
2017,05,14,08,01,126.70
2017,05,14,08,02,120.20
2017,05,14,08,03,111.70
2017,05,14,08,04,102.30
2017,05,14,08,05,91.10
2017,05,14,08,06,81.20
2017,05,14,08,07,74.80
2017,05,14,08,08,72.00
2017,05,14,08,09,72.80
2017,05,14,08,10,78.80
2017,05,14,08,11,92.30
2017,05,14,08,12,102.60
2017,05,14,08,13,104.40
2017,05,14,08,14,105.70
2017,05,14,08,15,112.70
2017,05,14,08,16,121.70
2017,05,14,08,17,130.00
2017,05,14,08,18,132.00
2017,05,14,08,19,128.80
2017,05,14,08,20,118.30
2017,05,14,08,21,103.40
2017,05,14,08,22,94.30
2017,05,14,08,23,90.20
2017,05,14,08,24,100.90
2017,05,14,08,25,120.20
2017,05,14,08,26,142.40
2017,05,14,08,27,155.00
2017,05,14,08,28,153.80
2017,05,14,08,29,147.10
2017,05,14,08,30,139.00
2017,05,14,08,31,131.60
2017,05,14,08,32,119.30
2017,05,14,08,33,100.20
2017,05,14,08,34,90.80
2017,05,14,08,35,86.00
2017,05,14,08,36,84.00
2017,05,14,08,37,86.20
2017,05,14,08,38,93.40
2017,05,14,08,39,108.10
2017,05,14,08,40,138.30
2017,05,14,08,41,172.80
2017,05,14,08,42,188.30
2017,05,14,08,43,186.60
2017,05,14,08,44,179.10
2017,05,14,08,45,171.70
2017,05,14,08,46,175.80
2017,05,14,08,47,177.90
2017,05,14,08,48,176.00
2017,05,14,08,49,174.10
2017,05,14,08,50,161.10
2017,05,14,08,51,150.00
2017,05,14,08,52,139.20
2017,05,14,08,53,134.20
2017,05,14,08,54,137.30
2017,05,14,08,55,144.20
2017,05,14,08,56,150.00
2017,05,14,08,57,155.20
2017,05,14,08,58,160.00
2017,05,14,08,59,162.00
2017,05,14,09,00,163.70
2017,05,14,09,01,167.40
2017,05,14,09,02,166.30
2017,05,14,09,03,159.80
2017,05,14,09,04,155.80
2017,05,14,09,05,153.40
2017,05,14,09,06,148.90
2017,05,14,09,07,146.20
2017,05,14,09,08,146.00
2017,05,14,09,09,152.70
2017,05,14,09,10,168.20
2017,05,14,09,11,194.50
2017,05,14,09,12,220.00
2017,05,14,09,13,218.70
2017,05,14,09,14,210.80
2017,05,14,09,15,199.90
2017,05,14,09,16,188.50
2017,05,14,09,17,172.80
2017,05,14,09,18,160.00
2017,05,14,09,19,149.00
2017,05,14,09,20,132.00
2017,05,14,09,21,115.80
2017,05,14,09,22,112.70
2017,05,14,09,23,123.10
2017,05,14,09,24,145.50
2017,05,14,09,25,175.00
2017,05,14,09,26,216.50
2017,05,14,09,27,266.00
2017,05,14,09,28,314.40
2017,05,14,09,29,357.90
2017,05,14,09,30,399.10
2017,05,14,09,31,415.70
2017,05,14,09,32,426.50
2017,05,14,09,33,407.20
2017,05,14,09,34,390.40
2017,05,14,09,35,355.50
2017,05,14,09,36,332.40
2017,05,14,09,37,315.50
2017,05,14,09,38,302.50
2017,05,14,09,39,286.70
2017,05,14,09,40,270.40
2017,05,14,09,41,257.20
2017,05,14,09,42,253.90
2017,05,14,09,43,255.00
2017,05,14,09,44,260.20
2017,05,14,09,45,265.00
2017,05,14,09,46,262.20
2017,05,14,09,47,254.40
2017,05,14,09,48,241.00
2017,05,14,09,49,229.60
2017,05,14,09,50,225.50
2017,05,14,09,51,226.60
2017,05,14,09,52,227.00
2017,05,14,09,53,223.60
2017,05,14,09,54,216.70
2017,05,14,09,55,211.20
2017,05,14,09,56,201.50
2017,05,14,09,57,191.40
2017,05,14,09,58,185.90
2017,05,14,09,59,186.10
2017,05,14,10,00,194.90
2017,05,14,10,01,213.20
2017,05,14,10,02,237.70
2017,05,14,10,03,257.90
2017,05,14,10,04,275.90
2017,05,14,10,05,296.50
2017,05,14,10,06,315.60
2017,05,14,10,07,335.00
2017,05,14,10,08,347.80
2017,05,14,10,09,335.70
2017,05,14,10,10,304.90
2017,05,14,10,11,274.50
2017,05,14,10,12,248.70
2017,05,14,10,13,232.30
2017,05,14,10,14,222.60
2017,05,14,10,15,220.10
2017,05,14,10,16,224.50
2017,05,14,10,17,242.10
2017,05,14,10,18,263.90
2017,05,14,10,19,316.00
2017,05,14,10,20,316.00
2017,05,14,10,21,316.00
2017,05,14,10,22,316.00
2017,05,14,10,23,338.60
2017,05,14,10,24,422.70
2017,05,14,10,25,391.90
2017,05,14,10,26,346.00
2017,05,14,10,27,317.50
2017,05,14,10,28,313.00
2017,05,14,10,29,324.10
2017,05,14,10,30,344.00
2017,05,14,10,31,357.80
2017,05,14,10,32,351.60
2017,05,14,10,33,335.30
2017,05,14,10,34,320.20
2017,05,14,10,35,307.40
2017,05,14,10,36,296.50
2017,05,14,10,37,289.20
2017,05,14,10,38,285.60
2017,05,14,10,39,281.60
2017,05,14,10,40,274.70
2017,05,14,10,41,262.60
2017,05,14,10,42,250.30
2017,05,14,10,43,235.80
2017,05,14,10,44,223.40
2017,05,14,10,45,212.90
2017,05,14,10,46,206.40
2017,05,14,10,47,205.20
2017,05,14,10,48,209.60
2017,05,14,10,49,214.50
2017,05,14,10,50,227.10
2017,05,14,10,51,244.70
2017,05,14,10,52,266.40
2017,05,14,10,53,290.50
2017,05,14,10,54,313.40
2017,05,14,10,55,329.20
2017,05,14,10,56,340.80
2017,05,14,10,57,350.30
2017,05,14,10,58,357.20
2017,05,14,10,59,353.70
2017,05,14,11,00,346.50
2017,05,14,11,01,345.00
2017,05,14,11,02,351.30
2017,05,14,11,03,361.50
2017,05,14,11,04,377.20
2017,05,14,11,05,397.70
2017,05,14,11,06,411.20
2017,05,14,11,07,410.10
2017,05,14,11,08,391.60
2017,05,14,11,09,377.20
2017,05,14,11,10,375.50
2017,05,14,11,11,382.40
2017,05,14,11,12,394.70
2017,05,14,11,13,406.60
2017,05,14,11,14,399.50
2017,05,14,11,15,387.80
2017,05,14,11,16,374.00
2017,05,14,11,17,359.00
2017,05,14,11,18,344.60
2017,05,14,11,19,335.80
2017,05,14,11,20,323.30
2017,05,14,11,21,313.00
2017,05,14,11,22,314.80
2017,05,14,11,23,336.20
2017,05,14,11,24,381.30
2017,05,14,11,25,436.00
2017,05,14,11,26,420.20
2017,05,14,11,27,391.40
2017,05,14,11,28,354.40
2017,05,14,11,29,342.10
2017,05,14,11,30,332.90
2017,05,14,11,31,321.30
2017,05,14,11,32,311.80
2017,05,14,11,33,318.80
2017,05,14,11,34,334.80
2017,05,14,11,35,348.00
2017,05,14,11,36,352.00
2017,05,14,11,37,354.20
2017,05,14,11,38,367.80
2017,05,14,11,39,400.40
2017,05,14,11,40,418.00
2017,05,14,11,41,496.00
2017,05,14,11,42,548.00
2017,05,14,11,43,548.00
2017,05,14,11,44,505.90
2017,05,14,11,45,479.10
2017,05,14,11,46,549.60
2017,05,14,11,47,640.80
2017,05,14,11,48,657.00
2017,05,14,11,49,657.00
2017,05,14,11,50,657.00
2017,05,14,11,51,657.00
2017,05,14,11,52,657.00
2017,05,14,11,53,657.00
2017,05,14,11,54,657.00
2017,05,14,11,55,657.00
2017,05,14,11,56,657.00
2017,05,14,11,57,657.00
2017,05,14,11,58,657.00
2017,05,14,11,59,657.00
2017,05,14,12,00,657.00
2017,05,14,12,01,917.50
2017,05,14,12,02,1173.30
2017,05,14,12,03,1162.70
2017,05,14,12,04,1158.00
2017,05,14,12,05,1158.00
2017,05,14,12,06,655.50
2017,05,14,12,07,413.60
2017,05,14,12,08,425.00
2017,05,14,12,09,425.00
2017,05,14,12,10,499.80
2017,05,14,12,11,513.00
2017,05,14,12,12,513.00
2017,05,14,12,13,1196.10
2017,05,14,12,14,1215.50
2017,05,14,12,15,1226.50
2017,05,14,12,16,1246.60
2017,05,14,12,17,1280.00
2017,05,14,12,18,1280.00
2017,05,14,12,19,1280.00
2017,05,14,12,20,1311.50
2017,05,14,12,21,1384.00
2017,05,14,12,22,1382.00
2017,05,14,12,23,1141.60
2017,05,14,12,24,821.00
2017,05,14,12,25,821.00
2017,05,14,12,26,612.10
2017,05,14,12,27,434.00
2017,05,14,12,28,445.50
2017,05,14,12,29,479.30
2017,05,14,12,30,492.00
2017,05,14,12,31,492.00
2017,05,14,12,32,492.00
2017,05,14,12,33,492.00
2017,05,14,12,34,492.00
2017,05,14,12,35,1159.70
2017,05,14,12,36,1270.90
2017,05,14,12,37,1273.00
2017,05,14,12,38,1273.00
2017,05,14,12,39,1151.90
2017,05,14,12,40,467.90
2017,05,14,12,41,476.00
2017,05,14,12,42,476.00
2017,05,14,12,43,483.30
2017,05,14,12,44,499.00
2017,05,14,12,45,499.00
2017,05,14,12,46,467.50
2017,05,14,12,47,443.40
2017,05,14,12,48,491.90
2017,05,14,12,49,560.70
2017,05,14,12,50,594.00
2017,05,14,12,51,594.00
2017,05,14,12,52,594.00
2017,05,14,12,53,416.90
2017,05,14,12,54,334.00
2017,05,14,12,55,324.30
2017,05,14,12,56,326.40
2017,05,14,12,57,340.70
2017,05,14,12,58,357.60
2017,05,14,12,59,375.20
2017,05,14,13,00,395.20
2017,05,14,13,01,426.70
2017,05,14,13,02,478.60
2017,05,14,13,03,410.00
2017,05,14,13,04,414.30
2017,05,14,13,05,438.40
2017,05,14,13,06,473.90
2017,05,14,13,07,464.60
2017,05,14,13,08,471.00
2017,05,14,13,09,483.90
2017,05,14,13,10,473.00
2017,05,14,13,11,530.60
2017,05,14,13,12,541.60
2017,05,14,13,13,501.20
2017,05,14,13,14,537.60
2017,05,14,13,15,557.00
2017,05,14,13,16,557.00
2017,05,14,13,17,557.00
2017,05,14,13,18,557.00
2017,05,14,13,19,557.00
2017,05,14,13,20,557.00
2017,05,14,13,21,557.00
2017,05,14,13,22,1306.60
2017,05,14,13,23,1346.00
2017,05,14,13,24,1346.00
2017,05,14,13,25,1346.00
2017,05,14,13,26,1226.20
2017,05,14,13,27,538.70
2017,05,14,13,28,511.00
2017,05,14,13,29,505.90
2017,05,14,13,30,501.70
2017,05,14,13,31,512.60
2017,05,14,13,32,557.70
2017,05,14,13,33,596.00
2017,05,14,13,34,596.00
2017,05,14,13,35,596.00
2017,05,14,13,36,596.00
2017,05,14,13,37,596.00
2017,05,14,13,38,596.00
2017,05,14,13,39,465.30
2017,05,14,13,40,386.80
2017,05,14,13,41,379.50
2017,05,14,13,42,391.30
2017,05,14,13,43,395.80
2017,05,14,13,44,390.30
2017,05,14,13,45,383.30
2017,05,14,13,46,373.60
2017,05,14,13,47,366.90
2017,05,14,13,48,366.00
2017,05,14,13,49,365.20
2017,05,14,13,50,352.30
2017,05,14,13,51,313.50
2017,05,14,13,52,305.40
2017,05,14,13,53,308.00
2017,05,14,13,54,312.20
2017,05,14,13,55,313.60
2017,05,14,13,56,323.00
2017,05,14,13,57,323.00
2017,05,14,13,58,323.00
2017,05,14,13,59,297.80
2017,05,14,14,00,262.40
2017,05,14,14,01,223.00
2017,05,14,14,02,196.90
2017,05,14,14,03,178.50
2017,05,14,14,04,165.10
2017,05,14,14,05,163.00
2017,05,14,14,06,158.80
2017,05,14,14,07,151.70
2017,05,14,14,08,144.00
2017,05,14,14,09,140.80
2017,05,14,14,10,136.70
2017,05,14,14,11,133.10
2017,05,14,14,12,127.20
2017,05,14,14,13,121.60
2017,05,14,14,14,114.80
2017,05,14,14,15,109.90
2017,05,14,14,16,106.30
2017,05,14,14,17,105.00
2017,05,14,14,18,104.60
2017,05,14,14,19,103.00
2017,05,14,14,20,102.00
2017,05,14,14,21,103.00
2017,05,14,14,22,104.60
2017,05,14,14,23,105.00
2017,05,14,14,24,105.00
2017,05,14,14,25,105.00
2017,05,14,14,26,104.20
2017,05,14,14,27,104.00
2017,05,14,14,28,104.80
2017,05,14,14,29,106.70
2017,05,14,14,30,108.80
2017,05,14,14,31,110.90
2017,05,14,14,32,114.10
2017,05,14,14,33,116.20
2017,05,14,14,34,120.70
2017,05,14,14,35,125.40
2017,05,14,14,36,127.00
2017,05,14,14,37,125.50
2017,05,14,14,38,120.10
2017,05,14,14,39,117.40
2017,05,14,14,40,115.20
2017,05,14,14,41,111.90
2017,05,14,14,42,107.10
2017,05,14,14,43,103.50
2017,05,14,14,44,100.90
2017,05,14,14,45,98.40
2017,05,14,14,46,94.40
2017,05,14,14,47,91.80
2017,05,14,14,48,90.20
2017,05,14,14,49,88.50
2017,05,14,14,50,84.80
2017,05,14,14,51,83.20
2017,05,14,14,52,81.20
2017,05,14,14,53,81.00
2017,05,14,14,54,81.00
2017,05,14,14,55,81.00
2017,05,14,14,56,81.00
2017,05,14,14,57,81.00
2017,05,14,14,58,81.30
2017,05,14,14,59,83.20
2017,05,14,15,00,84.50
2017,05,14,15,01,86.60
2017,05,14,15,02,89.10
2017,05,14,15,03,92.60
2017,05,14,15,04,96.20
2017,05,14,15,05,99.00
2017,05,14,15,06,100.00
2017,05,14,15,07,98.90
2017,05,14,15,08,99.20
2017,05,14,15,09,103.20
2017,05,14,15,10,109.00
2017,05,14,15,11,116.20
2017,05,14,15,12,123.60
2017,05,14,15,13,132.30
2017,05,14,15,14,146.10
2017,05,14,15,15,160.90
2017,05,14,15,16,173.00
2017,05,14,15,17,185.40
2017,05,14,15,18,200.70
2017,05,14,15,19,215.20
2017,05,14,15,20,228.70
2017,05,14,15,21,245.90
2017,05,14,15,22,268.30
2017,05,14,15,23,303.80
2017,05,14,15,24,350.70
2017,05,14,15,25,392.00
2017,05,14,15,26,428.40
2017,05,14,15,27,499.20
2017,05,14,15,28,502.80
2017,05,14,15,29,485.00
2017,05,14,15,30,628.50
2017,05,14,15,31,759.00
2017,05,14,15,32,1019.70
2017,05,14,15,33,1160.00
2017,05,14,15,34,1160.00
2017,05,14,15,35,1032.50
2017,05,14,15,36,990.00
2017,05,14,15,37,990.00
2017,05,14,15,38,990.00
2017,05,14,15,39,587.40
2017,05,14,15,40,545.00
2017,05,14,15,41,1085.50
2017,05,14,15,42,1000.00
2017,05,14,15,43,1000.00
2017,05,14,15,44,1000.00
2017,05,14,15,45,981.30
2017,05,14,15,46,902.00
2017,05,14,15,47,955.10
2017,05,14,15,48,1094.40
2017,05,14,15,49,1139.40
2017,05,14,15,50,1164.00
2017,05,14,15,51,1164.00
2017,05,14,15,52,1102.20
2017,05,14,15,53,1050.90
2017,05,14,15,54,1044.70
2017,05,14,15,55,1029.20
2017,05,14,15,56,1008.80
2017,05,14,15,57,986.40
2017,05,14,15,58,981.00
2017,05,14,15,59,483.10
2017,05,14,16,00,360.90
2017,05,14,16,01,342.00
2017,05,14,16,02,339.00
2017,05,14,16,03,345.70
2017,05,14,16,04,353.40
2017,05,14,16,05,363.70
2017,05,14,16,06,383.70
2017,05,14,16,07,410.80
2017,05,14,16,08,438.00
2017,05,14,16,09,548.20
2017,05,14,16,10,869.00
2017,05,14,16,11,844.00
2017,05,14,16,12,704.80
2017,05,14,16,13,469.40
2017,05,14,16,14,436.20
2017,05,14,16,15,454.20
2017,05,14,16,16,490.90
2017,05,14,16,17,508.00
2017,05,14,16,18,558.00
2017,05,14,16,19,585.00
2017,05,14,16,20,585.00
2017,05,14,16,21,590.30
2017,05,14,16,22,620.60
2017,05,14,16,23,626.00
2017,05,14,16,24,626.00
2017,05,14,16,25,639.30
2017,05,14,16,26,675.00
2017,05,14,16,27,675.00
2017,05,14,16,28,687.10
2017,05,14,16,29,796.00
2017,05,14,16,30,796.00
2017,05,14,16,31,796.00
2017,05,14,16,32,687.20
2017,05,14,16,33,336.10
2017,05,14,16,34,328.30
2017,05,14,16,35,331.20
2017,05,14,16,36,339.20
2017,05,14,16,37,341.00
2017,05,14,16,38,342.10
2017,05,14,16,39,344.60
2017,05,14,16,40,352.30
2017,05,14,16,41,368.00
2017,05,14,16,42,386.00
2017,05,14,16,43,394.90
2017,05,14,16,44,402.00
2017,05,14,16,45,425.90
2017,05,14,16,46,487.60
2017,05,14,16,47,497.00
2017,05,14,16,48,726.80
2017,05,14,16,49,680.70
2017,05,14,16,50,670.00
2017,05,14,16,51,638.90
2017,05,14,16,52,341.40
2017,05,14,16,53,323.60
2017,05,14,16,54,325.60
2017,05,14,16,55,382.20
2017,05,14,16,56,360.50
2017,05,14,16,57,356.40
2017,05,14,16,58,296.50
2017,05,14,16,59,276.10
2017,05,14,17,00,269.50
2017,05,14,17,01,266.00
2017,05,14,17,02,266.00
2017,05,14,17,03,271.10
2017,05,14,17,04,277.10
2017,05,14,17,05,280.30
2017,05,14,17,06,281.00
2017,05,14,17,07,281.00
2017,05,14,17,08,281.00
2017,05,14,17,09,278.50
2017,05,14,17,10,274.40